Location: Arrien
(42.8963°N, 1.0429°E)
Time: 23:36:34
(UTC+00:00)

UWE-3 - Visible Passes

Search period start: 18 April 2026 00:00
Search period end: 28 April 2026 00:00
Orbit: 543 x 612 km, 97.9° (Epoch: 17 April)

Date Brightness Start Highest point End Pass type
(mag) Time Alt. Az. Time Alt. Az. Time Alt. Az.
18 Apr ? 01:45:10 10° ENE 01:47:05 14° E 01:47:05 14° E visible
18 Apr ? 03:19:09 10° N 03:22:53 42° WNW 03:23:22 40° W visible
19 Apr ? 01:49:06 10° NE 01:51:24 16° E 01:51:24 16° E visible
19 Apr ? 03:23:22 10° N 03:27:02 37° WNW 03:27:41 35° W visible
20 Apr ? 01:53:04 10° NE 01:55:43 18° E 01:55:43 18° E visible
20 Apr ? 03:27:36 10° N 03:31:11 34° WNW 03:32:00 30° W visible
21 Apr ? 01:57:04 10° NE 02:00:00 20° E 02:00:01 20° E visible
21 Apr ? 03:31:50 10° N 03:35:19 30° WNW 03:36:18 27° W visible
22 Apr ? 02:01:05 10° NE 02:04:11 22° E 02:04:19 22° E visible
22 Apr ? 03:36:05 10° N 03:39:27 28° WNW 03:40:37 23° W visible
23 Apr ? 02:05:07 10° NE 02:08:22 24° E 02:08:37 24° ESE visible
23 Apr ? 03:40:19 10° NNW 03:43:34 25° WNW 03:44:54 21° W visible
24 Apr ? 02:09:10 10° NE 02:12:32 27° E 02:12:55 26° ESE visible
24 Apr ? 03:44:34 10° NNW 03:47:41 23° WNW 03:49:13 18° W visible
25 Apr ? 02:13:13 10° NE 02:16:42 30° E 02:17:13 29° ESE visible
25 Apr ? 03:48:50 10° NNW 03:51:48 21° WNW 03:53:30 16° W visible
26 Apr ? 02:17:17 10° NNE 02:20:52 33° E 02:21:30 31° ESE visible
26 Apr ? 03:53:08 10° NNW 03:55:54 19° WNW 03:57:47 14° W visible
27 Apr ? 02:21:22 10° NNE 02:25:01 37° E 02:25:47 33° SE visible
27 Apr ? 03:57:25 10° NNW 04:00:00 17° WNW 04:02:04 12° W visible
